SES-10

Last updated on Sun Jul 06 2025 00:02:45 GMT+0000 (Coordinated Universal Time)

1 42432U 17017A 25186.25120502 -.00000257 00000+0 00000+0 0 9993 2 42432 0.0112 23.3237 0002828 83.1207 200.5788 1.00272060 30249
UTC large
Height (km)
Speed (km/s)
/
Latitude / Longitude
Inclination (degrees)
Orbital Period (minutes)
Azimuth
Elevation
Range (km)
Doppler Factor

Next 0 passes for location: London (51.5072 / 0.1276)

Sorry there are no passes over London.